Weather in Kolyanur

Russia / Kirov Oblast     57°25′11″N   48°48′07″E
temp.,
°C
wind,
m/s
gust,
m/s
humid.,
%
clouds,
%
prec.,
mm/h
press.,
hPa
HPBL,
m
19 june, sat
sat1900:00+13sw412728 0.0 1024218
03:00+13wsw51372100 0.0 1023256
06:00+16wsw5118497 0.0 1022303
09:00+22w711725 0.0 1020675
12:00+25wsw812625 0.0 10191646
15:00+26w812600 0.0 10171955
18:00+24w511670 0.0 1017315
21:00+20w513760 0.0 1018209
20 june, sun
sun2000:00+18w412760 0.0 1018215
03:00+16wnw36840 0.0 102094
06:00+20n24815 0.0 1021210
09:00+23n23615 0.0 1021750
12:00+26nw12540 0.0 10211262
15:00+27w02543 0.0 10211401
18:00+24ese34715 0.2 102090
21:00+19se4978100 0.2 1021162
21 june, mon
mon2100:00+18s4109375 0.8 1020179
03:00+18s239529 1.7 102144
06:00+21wsw34825 0.1 1021181
09:00+25wsw46675 0.1 1021567
12:00+27wsw56590 0.0 10201268
15:00+28sw56600 0.0 10201105
18:00+26wsw49710 0.0 1019268
21:00+22wsw367990 0.0 101972
22 june, tue
tue2200:00+20w3576100 0.0 102072
03:00+19w3581100 0.0 102076
06:00+22w358063 0.0 1021155
09:00+26wnw4567100 0.0 1021460
12:00+30w45540 0.0 10201320
15:00+30w566059 0.0 10201253
18:00+24sw346746 0.8 102046
21:00+21w48811 1.0 1021111
23 june, wed
wed2300:00+20wnw46880 0.0 102187
03:00+19wnw33891 0.0 102133
06:00+22wnw34820 0.0 1022150
09:00+27wnw34660 0.0 1021476
12:00+30wnw34510 0.0 10211292
15:00+31wsw33505 0.0 10211575
18:00+23wsw81378100 0.6 1020270
21:00+20nne41093100 1.6 1021205